This demonstration page uses our WeatherBlox Daily Observations layout. Learn more.

Hourly Observations for January 11, 2018

Temp ( °F °C ) Dew Point ( °F °C ) Humidity (%) Winds ( mph kmh ) Pressure ( in mb ) Visibility ( mi km ) Precip ( " mm )
12:15 am 00:15 Cloudy 21 -6 15 -9.7 75 75 N 24 39 29.91 1013 10 16.0934 0 0
12:35 am 00:35 Cloudy 19 -7 13 -10.4 77 77 NNW 35 56 29.94 1014 10 16.0934 0 0
12:55 am 00:55 Cloudy 18 -7.8 11 -11.4 76 76 N 26 43 29.94 1014 10 16.0934 0 0
1:15 am 01:15 Windy with Snow Likely 17 -8.5 13 -10.6 85 85 N 24 39 29.97 1015 1.5 2.41401 0 0
1:35 am 01:35 Cloudy with Snow 16 -9 13 -10.5 89 89 NNW 33 54 29.97 1015 0.75 1.207005 0 0
1:55 am 01:55 Cloudy with Snow 15 -9.7 11 -11.5 87 87 NNW 29 46 29.97 1015 0.75 1.207005 0 0
2:15 am 02:15 Cloudy with Snow 14 -9.8 11 -11.5 88 88 N 22 35 30 1016 0.75 1.207005 0 0
2:35 am 02:35 Cloudy with Snow 14 -10 12 -11.3 90 90 N 23 37 30.03 1017 0.75 1.207005 0 0
2:55 am 02:55 Windy with Snow Likely 14 -9.8 11 -11.4 88 88 N 20 31 30.03 1017 1.25 2.011675 0.01 0.254
3:15 am 03:15 Windy with Snow Likely 14 -10.2 10 -12 87 87 N 26 43 30.06 1018 1.25 2.011675 0 0
3:35 am 03:35 Windy with Snow Likely 13 -10.6 10 -12.5 86 86 N 24 39 30.09 1019 1 1.60934 0 0
3:55 am 03:55 Cloudy with Snow 12 -10.9 10 -12.4 89 89 N 20 31 30.12 1020 0.75 1.207005 0.01 0.254
4:15 am 04:15 Cloudy with Light Snow 12 -11.1 9 -12.8 87 87 N 18 30 30.12 1020 1.5 2.41401 0 0
4:35 am 04:35 Cloudy with Light Snow 12 -11.1 9 -13 86 86 N 18 30 30.12 1020 4 6.43736 0 0
4:55 am 04:55 Windy with Snow Likely 11 -11.5 7 -14 82 82 N 23 37 30.15 1021 2.5 4.02335 0 0
5:15 am 05:15 Cloudy 11 -11.6 7 -14.1 82 82 N 21 33 30.15 1021 7 11.26538 0 0
5:35 am 05:35 Hazy 11 -11.8 5 -15 77 77 NNW 25 41 30.15 1021 3 4.82802 0 0
5:55 am 05:55 Clear 10 -12 5 -15 79 79 N 16 26 30.18 1022 10 16.0934 0 0
6:15 am 06:15 Clear 10 -12 4 -15.3 77 77 N 21 33 30.18 1022 7 11.26538 0 0
6:35 am 06:35 Partly Cloudy 10 -12.1 4 -15.6 75 75 N 24 39 30.21 1023 10 16.0934 0 0
6:55 am 06:55 Partly Cloudy 9 -12.6 3 -16.2 75 75 NNW 25 41 30.24 1024 7 11.26538 0 0
7:15 am 07:15 Clear 9 -12.8 2 -16.4 75 75 N 21 33 30.24 1024 10 16.0934 0 0
7:35 am 07:35 Clear 8 -13.2 2 -16.8 75 75 NNW 21 33 30.27 1025 10 16.0934 0 0
7:55 am 07:55 Clear 8 -13.5 1 -17 75 75 NNW 17 28 30.27 1025 10 16.0934 0 0
8:15 am 08:15 Sunny 7 -13.7 1 -17.5 73 73 NNW 22 35 30.3 1026 10 16.0934 0 0
8:35 am 08:35 Sunny 7 -14 0 -18 72 72 N 21 33 30.3 1026 10 16.0934 0 0
8:55 am 08:55 Sunny 7 -13.9 0 -18 71 71 NNW 24 39 30.33 1027 7 11.26538 0 0
9:15 am 09:15 Sunny 7 -14 0 -18 72 72 NNW 18 30 30.39 1029 10 16.0934 0 0
9:35 am 09:35 Sunny 8 -13.6 0 -18 70 70 N 24 39 30.36 1028 10 16.0934 0 0
9:55 am 09:55 Sunny 7 -13.7 0 -18 70 70 N 21 33 30.36 1028 7 11.26538 0 0
10:15 am 10:15 Sunny 8 -13.3 0 -18 68 68 N 21 33 30.36 1028 10 16.0934 0 0
10:35 am 10:35 Sunny 9 -12.7 1 -17.4 68 68 NNW 23 37 30.36 1028 7 11.26538 0 0
10:55 am 10:55 Sunny 9 -12.7 1 -17.3 69 69 NNW 22 35 30.36 1028 10 16.0934 0 0
11:15 am 11:15 Sunny 10 -12.5 1 -17.1 69 69 NNW 21 33 30.36 1028 10 16.0934 0 0
11:35 am 11:35 Sunny 11 -11.6 2 -16.4 68 68 NNW 20 31 30.36 1028 10 16.0934 0 0
11:55 am 11:55 Sunny 12 -10.9 3 -16 66 66 NNW 21 33 30.33 1027 10 16.0934 0 0
12:15 pm 12:15 Sunny 13 -10.6 3 -16 65 65 NNW 23 37 30.33 1027 10 16.0934 0 0
12:35 pm 12:35 Sunny 14 -10.1 5 -15.2 67 67 NNW 21 33 30.33 1027 10 16.0934 0 0
12:55 pm 12:55 Sunny 14 -10.2 4 -15.5 65 65 NNW 21 33 30.33 1027 10 16.0934 0 0
1:15 pm 13:15 Sunny 14 -9.9 5 -15.1 66 66 NNW 16 26 30.36 1028 10 16.0934 0 0
1:35 pm 13:35 Sunny 14 -9.8 5 -15.2 65 65 NNW 22 35 30.36 1028 10 16.0934 0 0
1:55 pm 13:55 Sunny 14 -9.8 4 -15.3 65 65 NNW 20 31 30.33 1027 10 16.0934 0 0
2:15 pm 14:15 Sunny 15 -9.5 5 -14.9 65 65 NNW 21 33 30.36 1028 10 16.0934 0 0
2:35 pm 14:35 Sunny 15 -9.3 5 -14.9 64 64 NNW 20 31 30.36 1028 10 16.0934 0 0
2:55 pm 14:55 Sunny 16 -9 6 -14.5 65 65 NNW 22 35 30.36 1028 10 16.0934 0 0
3:15 pm 15:15 Sunny 16 -9.1 5 -14.9 63 63 NNW 18 30 30.36 1028 10 16.0934 0 0
3:35 pm 15:35 Sunny 16 -9.1 5 -15.1 62 62 NNW 20 31 30.39 1029 10 16.0934 0 0
3:55 pm 15:55 Sunny 16 -9 5 -14.9 63 63 NNW 15 24 30.39 1029 10 16.0934 0 0
4:15 pm 16:15 Sunny 16 -9.1 6 -14.6 65 65 N 14 22 30.42 1030 10 16.0934 0 0
4:35 pm 16:35 Sunny 15 -9.3 5 -15 64 64 NNW 17 28 30.42 1030 10 16.0934 0 0
4:55 pm 16:55 Sunny 15 -9.5 5 -15.1 64 64 NNW 18 30 30.42 1030 10 16.0934 0 0
5:15 pm 17:15 Sunny 14 -9.8 5 -15.1 66 66 NNW 12 19 30.45 1031 10 16.0934 0 0
5:35 pm 17:35 Clear 14 -10.2 5 -15.2 67 67 N 13 20 30.48 1032 10 16.0934 0 0
5:55 pm 17:55 Clear 13 -10.6 5 -15.2 69 69 N 12 19 30.48 1032 10 16.0934 0 0
6:15 pm 18:15 Clear 12 -11.2 4 -15.5 71 71 N 9 15 30.48 1032 10 16.0934 0 0
6:35 pm 18:35 Clear 12 -11.2 4 -15.5 71 71 N 12 19 30.48 1032 10 16.0934 0 0
6:55 pm 18:55 Clear 11 -11.7 4 -15.6 73 73 N 9 15 30.48 1032 10 16.0934 0 0
7:15 pm 19:15 Clear 10 -12.1 4 -15.7 75 75 N 9 15 30.48 1032 10 16.0934 0 0
7:35 pm 19:35 Clear 9 -12.6 3 -16 76 76 N 7 11 30.53 1034 10 16.0934 0 0
7:55 pm 19:55 Clear 9 -12.6 3 -16 76 76 N 9 15 30.53 1034 10 16.0934 0 0
8:15 pm 20:15 Clear 8 -13.5 2 -16.5 78 78 N 9 15 30.5 1033 10 16.0934 0 0
8:35 pm 20:35 Clear 8 -13.5 2 -16.5 78 78 N 9 15 30.5 1033 10 16.0934 0 0
8:55 pm 20:55 Clear 7 -13.8 2 -16.8 78 78 NNE 9 15 30.5 1033 10 16.0934 0 0
9:15 pm 21:15 Clear 7 -14.1 1 -17 79 79 N 8 13 30.5 1033 10 16.0934 0 0
9:35 pm 21:35 Clear 7 -14.1 1 -17.1 78 78 N 12 19 30.5 1033 10 16.0934 0 0
9:55 pm 21:55 Clear 6 -14.3 1 -17.4 78 78 N 10 17 30.5 1033 10 16.0934 0 0
10:15 pm 22:15 Clear 6 -14.6 1 -17.5 79 79 NNE 10 17 30.5 1033 10 16.0934 0 0
10:35 pm 22:35 Clear 6 -14.4 1 -17.4 78 78 NNE 14 22 30.5 1033 10 16.0934 0 0
10:55 pm 22:55 Clear 6 -14.5 1 -17.5 78 78 WNW 5 7 30.53 1034 10 16.0934 0 0
11:15 pm 23:15 Clear 5 -15 0 -17.9 79 79 NNW 6 9 30.53 1034 10 16.0934 0 0
11:35 pm 23:35 Clear 5 -14.8 0 -17.7 79 79 NW 7 11 30.53 1034 10 16.0934 0 0
11:55 pm 23:55 Clear 5 -15.2 0 -18 79 79 NW 5 7 30.53 1034 10 16.0934 0 0

Powered by AerisWeather